Tracking 28790 objects as of 18-Apr-2024
HD Live streaming from Space Station
objects crossing your sky now

STARLINK-1849

Track STARLINK-1849 now!
10-day predictions
STARLINK-1849 is classified as:


NORAD ID: 47137
Int'l Code: 2020-088R
Perigee: 553.3 km
Apogee: 555.5 km
Inclination: 53.1 °
Period: 95.6 minutes
Semi major axis: 6925 km
RCS: Unknown
Launch date: November 25, 2020
Source: United States (US)
Launch site: AIR FORCE EASTERN TEST RANGE (AFETR)
Your satellite tracking list
Your tracking list is empty




NASA's NSSDC Master Catalog

Two Line Element Set (TLE):
1 47137U 20088R   24109.38704220 -.00000838  00000-0 -37382-4 0  9990
2 47137  53.0541 150.5044 0001577  81.5247 278.5920 15.06393903188232
Source of the keplerian elements: AFSPC